When you browse on this site, cookies collect data to enhance your experience and personalize the content and advertising you see.
Visit our Privacy Policy to learn more. By continuing to use the site, you agree to this use of cookies and data.
  • In Czech Republic
  • List of Countries
  • For 7 days
  • Water Temperature
  • Satellite Maps
  • Weather Map
  • Weather Widgets
  • user-avatar
    Login

    Hourly Weather Dinagepoor

    Today, 16 December, Sunday

    Time Temperature Precipitation Wind Pressure Humidity
    00:00 +19°C° 0 mm 2 mps 762 mmHg 36%
    01:00 +19°C° 0 mm 2 mps 762 mmHg 37%
    02:00 +19°C° 0 mm 2 mps 762 mmHg 37%
    03:00 +19°C° 0 mm 2 mps 761 mmHg 38%
    04:00 +19°C° 0 mm 2 mps 761 mmHg 39%
    05:00 +18°C° 0 mm 2 mps 761 mmHg 40%
    06:00 +18°C° 0 mm 2 mps 761 mmHg 41%
    07:00 +19°C° 0 mm 2 mps 761 mmHg 41%
    08:00 +20°C° 0 mm 3 mps 762 mmHg 40%
    09:00 +21°C° 0 mm 3 mps 762 mmHg 40%
    10:00 +24°C° 0 mm 3 mps 762 mmHg 37%
    11:00 +26°C° 0 mm 3 mps 761 mmHg 35%
    12:00 +28°C° 0 mm 2 mps 761 mmHg 33%
    13:00 +29°C° 0 mm 2 mps 761 mmHg 32%
    14:00 +29°C° 0 mm 2 mps 760 mmHg 31%
    15:00 +30°C° 0 mm 1 mps 760 mmHg 30%
    16:00 +28°C° 0 mm 1 mps 760 mmHg 33%
    17:00 +27°C° 0 mm 1 mps 759 mmHg 36%
    18:00 +26°C° 0 mm 1 mps 759 mmHg 39%
    19:00 +25°C° 0 mm 1 mps 760 mmHg 40%
    20:00 +25°C° 0 mm 1 mps 760 mmHg 42%
    21:00 +24°C° 0 mm 1 mps 761 mmHg 43%
    22:00 +24°C° 0 mm 2 mps 761 mmHg 44%
    23:00 +24°C° 0 mm 2 mps 761 mmHg 46%

    Tomorrow, 17 December, Monday

    Time Temperature Precipitation Wind Pressure Humidity
    00:00 +24°C° 0 mm 2 mps 761 mmHg 47%
    01:00 +23°C° 0 mm 2 mps 761 mmHg 48%
    02:00 +23°C° 0 mm 2 mps 761 mmHg 48%
    03:00 +23°C° 0 mm 2 mps 760 mmHg 49%
    04:00 +21°C° 0 mm 2 mps 760 mmHg 50%
    05:00 +21°C° 0 mm 2 mps 761 mmHg 51%
    06:00 +21°C° 0 mm 2 mps 761 mmHg 51%
    07:00 +22°C° 0 mm 1 mps 761 mmHg 52%
    08:00 +22°C° 0 mm 1 mps 762 mmHg 52%
    09:00 +22°C° 0 mm 1 mps 762 mmHg 52%
    10:00 +23°C° 0 mm 1 mps 762 mmHg 51%
    11:00 +23°C° 0 mm 1 mps 762 mmHg 50%
    12:00 +24°C° 0 mm 1 mps 762 mmHg 49%
    13:00 +24°C° 0 mm 1 mps 761 mmHg 49%
    14:00 +24°C° 0 mm 1 mps 761 mmHg 49%
    15:00 +24°C° 0 mm 1 mps 760 mmHg 49%
    16:00 +23°C° 0 mm 1 mps 760 mmHg 51%
    17:00 +23°C° 0 mm 1 mps 760 mmHg 53%
    18:00 +22°C° 0 mm 1 mps 760 mmHg 54%
    19:00 +22°C° 0 mm 1 mps 761 mmHg 56%
    20:00 +22°C° 0 mm 1 mps 761 mmHg 58%
    21:00 +21°C° 0 mm 1 mps 762 mmHg 59%
    22:00 +21°C° 0.1 mm 1 mps 762 mmHg 59%
    23:00 +21°C° 0.1 mm 1 mps 762 mmHg 59%

    Day after tomorrow, 18 December, Tuesday

    Time Temperature Precipitation Wind Pressure Humidity
    00:00 +20°C° 0.1 mm 2 mps 762 mmHg 59%
    01:00 +20°C° 0 mm 2 mps 761 mmHg 58%
    02:00 +19°C° 0 mm 2 mps 760 mmHg 58%
    03:00 +19°C° 0 mm 2 mps 760 mmHg 58%
    04:00 +19°C° 0.3 mm 2 mps 759 mmHg 61%
    05:00 +19°C° 0.3 mm 2 mps 759 mmHg 64%
    06:00 +18°C° 0.3 mm 2 mps 759 mmHg 67%
    07:00 +18°C° 0.7 mm 2 mps 760 mmHg 69%
    08:00 +18°C° 0.7 mm 3 mps 760 mmHg 72%
    09:00 +18°C° 0.7 mm 3 mps 761 mmHg 74%
    10:00 +18°C° 0.7 mm 3 mps 761 mmHg 75%
    11:00 +18°C° 0.7 mm 3 mps 761 mmHg 76%
    12:00 +18°C° 0.7 mm 3 mps 761 mmHg 76%
    13:00 +18°C° 0.3 mm 3 mps 760 mmHg 76%
    14:00 +18°C° 0.3 mm 3 mps 759 mmHg 76%
    15:00 +18°C° 0.3 mm 3 mps 758 mmHg 76%
    16:00 +18°C° 0 mm 3 mps 758 mmHg 77%
    17:00 +17°C° 0 mm 2 mps 759 mmHg 78%
    18:00 +17°C° 0 mm 2 mps 759 mmHg 79%
    19:00 +17°C° 0 mm 2 mps 759 mmHg 80%
    20:00 +18°C° 0 mm 1 mps 760 mmHg 81%
    21:00 +18°C° 0 mm 1 mps 760 mmHg 82%
    22:00 +16°C° 0 mm 1 mps 760 mmHg 84%
    23:00 +16°C° 0 mm 1 mps 760 mmHg 85%

    19 December, Wednesday

    Time Temperature Precipitation Wind Pressure Humidity
    00:00 +15°C° 0 mm 1 mps 760 mmHg 87%
    01:00 +15°C° 0 mm 1 mps 759 mmHg 88%
    02:00 +15°C° 0 mm 1 mps 759 mmHg 89%
    03:00 +15°C° 0 mm 2 mps 758 mmHg 90%
    04:00 +14°C° 0 mm 2 mps 758 mmHg 90%
    05:00 +14°C° 0 mm 2 mps 758 mmHg 91%
    06:00 +14°C° 0 mm 2 mps 758 mmHg 92%
    07:00 +15°C° 0 mm 2 mps 759 mmHg 86%
    08:00 +16°C° 0 mm 2 mps 760 mmHg 81%
    09:00 +17°C° 0 mm 2 mps 760 mmHg 75%
    10:00 +19°C° 0 mm 2 mps 760 mmHg 67%
    11:00 +20°C° 0 mm 2 mps 760 mmHg 59%
    12:00 +23°C° 0 mm 2 mps 760 mmHg 51%
    13:00 +23°C° 0 mm 2 mps 759 mmHg 47%
    14:00 +24°C° 0 mm 2 mps 758 mmHg 43%
    15:00 +25°C° 0 mm 2 mps 757 mmHg 39%
    16:00 +23°C° 0 mm 2 mps 758 mmHg 42%
    17:00 +21°C° 0 mm 2 mps 758 mmHg 45%
    18:00 +21°C° 0 mm 1 mps 758 mmHg 48%
    19:00 +21°C° 0 mm 1 mps 759 mmHg 50%
    20:00 +20°C° 0 mm 1 mps 759 mmHg 51%
    21:00 +18°C° 0 mm 0 mps 760 mmHg 52%
    22:00 +19°C° 0 mm 1 mps 760 mmHg 54%
    23:00 +19°C° 0 mm 1 mps 759 mmHg 55%

    20 December, Thursday

    Time Temperature Precipitation Wind Pressure Humidity
    00:00 +18°C° 0 mm 1 mps 759 mmHg 56%
    01:00 +18°C° 0 mm 1 mps 759 mmHg 58%
    02:00 +18°C° 0 mm 1 mps 759 mmHg 59%
    03:00 +16°C° 0 mm 1 mps 758 mmHg 61%
    04:00 +16°C° 0 mm 1 mps 759 mmHg 62%
    05:00 +16°C° 0 mm 1 mps 759 mmHg 64%
    06:00 +15°C° 0 mm 1 mps 759 mmHg 66%
    07:00 +18°C° 0 mm 1 mps 759 mmHg 63%
    08:00 +18°C° 0 mm 2 mps 760 mmHg 60%
    09:00 +19°C° 0 mm 2 mps 760 mmHg 58%
    10:00 +20°C° 0 mm 2 mps 760 mmHg 52%
    11:00 +23°C° 0 mm 2 mps 760 mmHg 47%
    12:00 +25°C° 0 mm 2 mps 759 mmHg 42%
    13:00 +25°C° 0 mm 2 mps 758 mmHg 40%
    14:00 +26°C° 0 mm 2 mps 757 mmHg 39%
    15:00 +26°C° 0 mm 2 mps 757 mmHg 37%
    16:00 +25°C° 0 mm 2 mps 757 mmHg 39%
    17:00 +24°C° 0 mm 2 mps 757 mmHg 41%
    18:00 +22°C° 0 mm 1 mps 757 mmHg 44%
    19:00 +21°C° 0 mm 2 mps 757 mmHg 43%
    20:00 +20°C° 0 mm 2 mps 758 mmHg 43%
    21:00 +19°C° 0 mm 2 mps 758 mmHg 43%
    22:00 +19°C° 0 mm 2 mps 758 mmHg 43%
    23:00 +18°C° 0 mm 2 mps 758 mmHg 42%

    21 December, Friday

    Time Temperature Precipitation Wind Pressure Humidity
    00:00 +18°C° 0 mm 2 mps 758 mmHg 42%
    01:00 +17°C° 0 mm 2 mps 758 mmHg 43%
    02:00 +17°C° 0 mm 2 mps 757 mmHg 43%
    03:00 +16°C° 0 mm 2 mps 757 mmHg 44%
    04:00 +16°C° 0 mm 2 mps 757 mmHg 46%
    05:00 +16°C° 0 mm 2 mps 757 mmHg 47%
    06:00 +15°C° 0 mm 1 mps 758 mmHg 49%
    07:00 +16°C° 0 mm 1 mps 758 mmHg 48%
    08:00 +19°C° 0 mm 1 mps 759 mmHg 46%
    09:00 +20°C° 0 mm 1 mps 760 mmHg 45%
    10:00 +20°C° 0 mm 2 mps 759 mmHg 41%
    11:00 +23°C° 0 mm 2 mps 759 mmHg 38%
    12:00 +25°C° 0 mm 2 mps 759 mmHg 34%
    13:00 +25°C° 0 mm 2 mps 758 mmHg 33%
    14:00 +26°C° 0 mm 2 mps 757 mmHg 32%
    15:00 +26°C° 0 mm 2 mps 757 mmHg 30%
    16:00 +25°C° 0 mm 2 mps 757 mmHg 32%
    17:00 +23°C° 0 mm 2 mps 757 mmHg 34%
    18:00 +21°C° 0 mm 2 mps 757 mmHg 37%
    19:00 +20°C° 0 mm 2 mps 758 mmHg 37%
    20:00 +20°C° 0 mm 2 mps 758 mmHg 38%
    21:00 +19°C° 0 mm 2 mps 758 mmHg 38%
    22:00 +19°C° 0 mm 2 mps 758 mmHg 39%
    23:00 +18°C° 0 mm 2 mps 758 mmHg 40%
    Show more